| time (UTC) | temp C | wind direction | speed KPH | gust KPH | rain 1hr cm | rain 24hr cm | rain mn cm | humidity % | barometer mb |
| 20260504175539 | 20 | 203 | 6.4 | 29.0 | 0.00 | 0.00 | 0.00 | 46 | 1011.5 |
| 20260504175041 | 20 | 276 | 11.3 | 29.0 | 0.00 | 0.00 | 0.00 | 47 | 1011.6 |
| 20260504174536 | 20 | 205 | 6.4 | 19.3 | 0.00 | 0.00 | 0.00 | 47 | 1011.7 |
| 20260504174036 | 20 | 263 | 6.4 | 17.7 | 0.00 | 0.00 | 0.00 | 48 | 1011.7 |
| 20260504173538 | 20 | 237 | 4.8 | 19.3 | 0.00 | 0.00 | 0.00 | 49 | 1011.7 |
| 20260504173034 | 20 | 355 | 4.8 | 20.9 | 0.00 | 0.00 | 0.00 | 47 | 1011.8 |
| 20260504172533 | 20 | 126 | 8.0 | 20.9 | 0.00 | 0.00 | 0.00 | 46 | 1011.7 |
| 20260504172034 | 19 | 199 | 6.4 | 16.1 | 0.00 | 0.00 | 0.00 | 48 | 1011.9 |
| 20260504171534 | 20 | 275 | 9.7 | 24.1 | 0.00 | 0.00 | 0.00 | 46 | 1011.9 |
| 20260504171034 | 19 | 251 | 9.7 | 24.1 | 0.00 | 0.00 | 0.00 | 47 | 1012.0 |
| 20260504170531 | 20 | 236 | 4.8 | 14.5 | 0.00 | 0.00 | 0.00 | 48 | 1012.1 |
| 20260504151013 | 17 | 261 | 3.2 | 12.9 | 0.00 | 0.00 | 0.00 | 54 | 1013.6 |
| 20260504150513 | 17 | 17 | 3.2 | 12.9 | 0.00 | 0.00 | 0.00 | 54 | 1013.4 |
| 20260504141000 | 15 | 212 | 6.4 | 16.1 | 0.00 | 0.00 | 0.00 | 60 | 1013.7 |
| 20260504140600 | 15 | 134 | 4.8 | 12.9 | 0.00 | 0.00 | 0.00 | 60 | 1013.8 |
| 20260504130548 | 11 | 236 | 4.8 | 14.5 | 0.00 | 0.00 | 0.00 | 65 | 1014.4 |
| 20260504110531 | 7 | 219 | 3.2 | 9.7 | 0.00 | 0.00 | 0.00 | 69 | 1014.6 |
| 20260504100524 | 6 | 236 | 0.0 | 4.8 | 0.00 | 0.00 | 0.00 | 70 | 1014.4 |
| 20260504081534 | 7 | 273 | 0.0 | 4.8 | 0.00 | 0.00 | 0.00 | 68 | 1014.3 |
| 20260504081015 | 7 | 272 | 1.6 | 4.8 | 0.00 | 0.00 | 0.00 | 68 | 1014.3 |
| 20260504080514 | 7 | 272 | 1.6 | 4.8 | 0.00 | 0.00 | 0.00 | 68 | 1014.3 |
| 20260504050556 | 8 | 240 | 4.8 | 12.9 | 0.00 | 0.00 | 0.00 | 63 | 1014.0 |
| 20260504045554 | 8 | 229 | 3.2 | 12.9 | 0.00 | 0.00 | 0.00 | 62 | 1014.0 |
| 20260504045054 | 8 | 277 | 3.2 | 12.9 | 0.00 | 0.00 | 0.00 | 63 | 1014.0 |
| 20260504044554 | 8 | 234 | 3.2 | 8.0 | 0.00 | 0.00 | 0.00 | 63 | 1014.0 |
| 20260504044053 | 8 | 219 | 1.6 | 6.4 | 0.00 | 0.00 | 0.00 | 63 | 1014.0 |
| 20260504043551 | 8 | 219 | 3.2 | 9.7 | 0.00 | 0.00 | 0.00 | 62 | 1014.1 |
| 20260504043057 | 8 | 219 | 3.2 | 9.7 | 0.00 | 0.00 | 0.00 | 62 | 1014.0 |
| 20260504042550 | 8 | 196 | 3.2 | 11.3 | 0.00 | 0.00 | 0.00 | 62 | 1013.9 |
| 20260504042050 | 9 | 189 | 3.2 | 11.3 | 0.00 | 0.00 | 0.00 | 62 | 1013.9 |
| 20260504041549 | 9 | 244 | 3.2 | 11.3 | 0.00 | 0.00 | 0.00 | 61 | 1013.8 |
| 20260504041047 | 9 | 215 | 4.8 | 11.3 | 0.00 | 0.00 | 0.00 | 61 | 1013.7 |
| 20260504040547 | 9 | 218 | 3.2 | 9.7 | 0.00 | 0.00 | 0.00 | 61 | 1013.6 |
| 20260504040046 | 9 | 256 | 3.2 | 11.3 | 0.00 | 0.00 | 0.00 | 60 | 1013.6 |
| 20260504035546 | 9 | 274 | 4.8 | 9.7 | 0.00 | 0.00 | 0.00 | 60 | 1013.5 |
| 20260504035045 | 9 | 292 | 3.2 | 8.0 | 0.00 | 0.00 | 0.00 | 61 | 1013.5 |
| 20260504034548 | 9 | 279 | 3.2 | 8.0 | 0.00 | 0.00 | 0.00 | 60 | 1013.4 |
| 20260504034045 | 9 | 290 | 3.2 | 8.0 | 0.00 | 0.00 | 0.00 | 60 | 1013.4 |
| 20260504033550 | 9 | 296 | 3.2 | 8.0 | 0.00 | 0.00 | 0.00 | 60 | 1013.4 |
| 20260504033044 | 9 | 303 | 3.2 | 9.7 | 0.00 | 0.00 | 0.00 | 61 | 1013.3 |
| 20260504032544 | 9 | 311 | 3.2 | 9.7 | 0.00 | 0.00 | 0.00 | 60 | 1013.4 |
| 20260504032048 | 9 | 273 | 1.6 | 6.4 | 0.00 | 0.00 | 0.00 | 60 | 1013.4 |
| 20260504031544 | 9 | 271 | 3.2 | 6.4 | 0.00 | 0.00 | 0.00 | 60 | 1013.4 |
| 20260504031043 | 9 | 277 | 3.2 | 6.4 | 0.00 | 0.00 | 0.00 | 60 | 1013.4 |
| 20260504030544 | 9 | 277 | 1.6 | 11.3 | 0.00 | 0.00 | 0.00 | 60 | 1013.3 |
| 20260504030044 | 9 | 277 | 3.2 | 11.3 | 0.00 | 0.00 | 0.00 | 60 | 1013.3 |
| 20260504025544 | 9 | 256 | 1.6 | 6.4 | 0.00 | 0.00 | 0.00 | 59 | 1013.3 |
| 20260504025044 | 10 | 256 | 1.6 | 9.7 | 0.00 | 0.00 | 0.00 | 59 | 1013.3 |
| 20260504024545 | 10 | 256 | 3.2 | 9.7 | 0.00 | 0.00 | 0.00 | 59 | 1013.3 |
| 20260504024046 | 10 | 254 | 1.6 | 6.4 | 0.00 | 0.00 | 0.00 | 58 | 1013.3 |
| 20260504023543 | 10 | 256 | 1.6 | 6.4 | 0.00 | 0.00 | 0.00 | 58 | 1013.4 |
| 20260504023042 | 10 | 255 | 0.0 | 4.8 | 0.00 | 0.00 | 0.00 | 58 | 1013.3 |
| 20260504022542 | 10 | 254 | 0.0 | 6.4 | 0.00 | 0.00 | 0.00 | 58 | 1013.3 |
| 20260504022043 | 10 | 254 | 1.6 | 6.4 | 0.00 | 0.00 | 0.00 | 56 | 1013.4 |
| 20260504021542 | 10 | 256 | 1.6 | 6.4 | 0.00 | 0.00 | 0.00 | 56 | 1013.3 |
| 20260504021042 | 10 | 257 | 3.2 | 6.4 | 0.00 | 0.00 | 0.00 | 56 | 1013.4 |
| 20260504020545 | 10 | 257 | 1.6 | 6.4 | 0.00 | 0.00 | 0.00 | 56 | 1013.4 |
| 20260504020117 | 10 | 267 | 1.6 | 6.4 | 0.00 | 0.00 | 0.00 | 56 | 1013.4 |
| 20260504015542 | 10 | 267 | 1.6 | 4.8 | 0.00 | 0.00 | 0.00 | 56 | 1013.3 |
| 20260504015044 | 10 | 269 | 1.6 | 6.4 | 0.00 | 0.00 | 0.00 | 55 | 1013.3 |
| 20260504014557 | 10 | 269 | 1.6 | 6.4 | 0.00 | 0.00 | 0.00 | 55 | 1013.3 |
| 20260504014041 | 10 | 269 | 1.6 | 6.4 | 0.00 | 0.00 | 0.00 | 55 | 1013.3 |
| 20260504013541 | 10 | 269 | 1.6 | 9.7 | 0.00 | 0.00 | 0.00 | 55 | 1013.3 |
| 20260504013055 | 10 | 263 | 3.2 | 9.7 | 0.00 | 0.00 | 0.00 | 56 | 1013.1 |
| 20260504012541 | 10 | 263 | 1.6 | 6.4 | 0.00 | 0.00 | 0.00 | 56 | 1013.2 |
| 20260504012041 | 10 | 263 | 3.2 | 6.4 | 0.00 | 0.00 | 0.00 | 55 | 1013.1 |
| 20260504011540 | 11 | 261 | 1.6 | 4.8 | 0.00 | 0.00 | 0.00 | 55 | 1013.1 |
| 20260504011040 | 11 | 261 | 3.2 | 4.8 | 0.00 | 0.00 | 0.00 | 54 | 1013.0 |
| 20260504010540 | 11 | 286 | 1.6 | 6.4 | 0.00 | 0.00 | 0.00 | 55 | 1012.9 |
| 20260504010044 | 11 | 288 | 1.6 | 6.4 | 0.00 | 0.00 | 0.00 | 54 | 1012.9 |
| 20260504005540 | 11 | 291 | 1.6 | 6.4 | 0.00 | 0.00 | 0.00 | 53 | 1012.8 |
| 20260504005042 | 11 | 292 | 1.6 | 4.8 | 0.00 | 0.00 | 0.00 | 53 | 1012.8 |
| 20260504004602 | 11 | 292 | 1.6 | 6.4 | 0.00 | 0.00 | 0.00 | 54 | 1012.8 |
| 20260504004040 | 11 | 295 | 1.6 | 6.4 | 0.00 | 0.00 | 0.00 | 53 | 1012.6 |
| 20260504003538 | 11 | 296 | 3.2 | 6.4 | 0.00 | 0.00 | 0.00 | 53 | 1012.6 |
| 20260504003045 | 11 | 303 | 3.2 | 4.8 | 0.00 | 0.00 | 0.00 | 53 | 1012.5 |
| 20260504002538 | 11 | 304 | 1.6 | 6.4 | 0.00 | 0.00 | 0.00 | 53 | 1012.4 |
| 20260504002039 | 11 | 303 | 1.6 | 6.4 | 0.00 | 0.00 | 0.00 | 53 | 1012.3 |
| 20260504001603 | 11 | 303 | 1.6 | 6.4 | 0.00 | 0.00 | 0.00 | 52 | 1012.3 |
| 20260504001039 | 11 | 286 | 1.6 | 4.8 | 0.00 | 0.00 | 0.00 | 52 | 1012.2 |
| 20260504000540 | 11 | 286 | 1.6 | 4.8 | 0.00 | 0.00 | 0.00 | 51 | 1012.2 |
| 20260504000041 | 11 | 286 | 1.6 | 4.8 | 0.00 | 0.00 | 0.00 | 50 | 1012.2 |
| 20260503235538 | 12 | 286 | 1.6 | 4.8 | 0.00 | 0.00 | 0.00 | 50 | 1012.1 |
| 20260503235038 | 12 | 286 | 1.6 | 4.8 | 0.00 | 0.00 | 0.00 | 49 | 1012.1 |
| 20260503234638 | 12 | 286 | 1.6 | 4.8 | 0.00 | 0.00 | 0.00 | 49 | 1012.1 |
| 20260503234039 | 12 | 286 | 1.6 | 4.8 | 0.00 | 0.00 | 0.00 | 49 | 1012.0 |
| 20260503233536 | 12 | 286 | 3.2 | 6.4 | 0.00 | 0.00 | 0.00 | 48 | 1012.0 |
| 20260503233041 | 12 | 286 | 1.6 | 12.9 | 0.00 | 0.00 | 0.00 | 49 | 1011.9 |
| 20260503232536 | 12 | 287 | 4.8 | 12.9 | 0.00 | 0.00 | 0.00 | 48 | 1011.9 |
| 20260503232038 | 12 | 285 | 3.2 | 12.9 | 0.00 | 0.00 | 0.00 | 47 | 1011.9 |
| 20260503231537 | 13 | 266 | 3.2 | 14.5 | 0.00 | 0.00 | 0.00 | 46 | 1011.9 |
| 20260503231037 | 13 | 268 | 3.2 | 14.5 | 0.00 | 0.00 | 0.00 | 47 | 1011.8 |
| 20260503230537 | 13 | 282 | 4.8 | 17.7 | 0.00 | 0.00 | 0.00 | 46 | 1011.9 |
| 20260503230043 | 13 | 283 | 6.4 | 17.7 | 0.00 | 0.00 | 0.00 | 46 | 1011.7 |
| 20260503225536 | 13 | 261 | 3.2 | 11.3 | 0.00 | 0.00 | 0.00 | 45 | 1011.7 |
| 20260503225036 | 13 | 300 | 3.2 | 16.1 | 0.00 | 0.00 | 0.00 | 45 | 1011.7 |
| 20260503224536 | 13 | 261 | 6.4 | 25.7 | 0.00 | 0.00 | 0.00 | 45 | 1011.6 |
| 20260503224036 | 14 | 327 | 6.4 | 25.7 | 0.00 | 0.00 | 0.00 | 44 | 1011.5 |
| 20260503223535 | 14 | 275 | 3.2 | 14.5 | 0.00 | 0.00 | 0.00 | 44 | 1011.6 |
| 20260503223036 | 15 | 346 | 4.8 | 19.3 | 0.00 | 0.00 | 0.00 | 44 | 1011.5 |
| 20260503222535 | 15 | 202 | 4.8 | 19.3 | 0.00 | 0.00 | 0.00 | 44 | 1011.5 |
| 20260503222036 | 15 | 152 | 3.2 | 12.9 | 0.00 | 0.00 | 0.00 | 42 | 1011.5 |
| 20260503221535 | 15 | 225 | 4.8 | 12.9 | 0.00 | 0.00 | 0.00 | 42 | 1011.5 |
| 20260503221035 | 15 | 247 | 4.8 | 12.9 | 0.00 | 0.00 | 0.00 | 43 | 1011.6 |
| 20260503220535 | 15 | 288 | 3.2 | 12.9 | 0.00 | 0.00 | 0.00 | 44 | 1011.5 |
| 20260503220043 | 15 | 250 | 3.2 | 12.9 | 0.00 | 0.00 | 0.00 | 43 | 1011.5 |
| 20260503215534 | 15 | 307 | 3.2 | 12.9 | 0.00 | 0.00 | 0.00 | 43 | 1011.5 |
| 20260503215035 | 15 | 298 | 3.2 | 19.3 | 0.00 | 0.00 | 0.00 | 43 | 1011.5 |
| 20260503214534 | 15 | 340 | 4.8 | 17.7 | 0.00 | 0.00 | 0.00 | 42 | 1011.4 |
| 20260503214038 | 15 | 88 | 1.6 | 14.5 | 0.00 | 0.00 | 0.00 | 43 | 1011.5 |
| 20260503213533 | 15 | 325 | 3.2 | 14.5 | 0.00 | 0.00 | 0.00 | 42 | 1011.5 |
| 20260503213033 | 15 | 292 | 4.8 | 12.9 | 0.00 | 0.00 | 0.00 | 42 | 1011.5 |
| 20260503212536 | 15 | 260 | 3.2 | 11.3 | 0.00 | 0.00 | 0.00 | 43 | 1011.4 |
| 20260503212035 | 15 | 313 | 3.2 | 12.9 | 0.00 | 0.00 | 0.00 | 42 | 1011.4 |
| 20260503211534 | 15 | 212 | 3.2 | 17.7 | 0.00 | 0.00 | 0.00 | 45 | 1011.5 |
| 20260503211033 | 15 | 304 | 4.8 | 17.7 | 0.00 | 0.00 | 0.00 | 44 | 1011.5 |
| 20260503210533 | 15 | 254 | 4.8 | 12.9 | 0.00 | 0.00 | 0.00 | 42 | 1011.5 |
| 20260503210032 | 15 | 190 | 1.6 | 12.9 | 0.00 | 0.00 | 0.00 | 43 | 1011.5 |
| 20260503205535 | 15 | 320 | 3.2 | 17.7 | 0.00 | 0.00 | 0.00 | 43 | 1011.4 |
| 20260503205032 | 15 | 326 | 3.2 | 20.9 | 0.00 | 0.00 | 0.00 | 43 | 1011.4 |
| 20260503204532 | 15 | 276 | 6.4 | 20.9 | 0.00 | 0.00 | 0.00 | 42 | 1011.4 |
| 20260503204032 | 15 | 340 | 6.4 | 14.5 | 0.00 | 0.00 | 0.00 | 42 | 1011.3 |
| 20260503203531 | 15 | 341 | 3.2 | 14.5 | 0.00 | 0.00 | 0.00 | 44 | 1011.4 |
| 20260503203046 | 15 | 295 | 6.4 | 14.5 | 0.00 | 0.00 | 0.00 | 43 | 1011.5 |
| 20260503202530 | 15 | 346 | 4.8 | 16.1 | 0.00 | 0.00 | 0.00 | 43 | 1011.6 |
| 20260503202030 | 15 | 277 | 4.8 | 17.7 | 0.00 | 0.00 | 0.00 | 43 | 1011.6 |
| 20260503201533 | 15 | 286 | 4.8 | 17.7 | 0.00 | 0.00 | 0.00 | 43 | 1011.6 |
| 20260503201032 | 15 | 279 | 8.0 | 17.7 | 0.00 | 0.00 | 0.00 | 42 | 1011.7 |
| 20260503200531 | 15 | 326 | 4.8 | 29.0 | 0.00 | 0.00 | 0.00 | 43 | 1011.7 |
| 20260503200030 | 15 | 333 | 8.0 | 20.9 | 0.00 | 0.00 | 0.00 | 44 | 1011.7 |
| 20260503195530 | 15 | 253 | 6.4 | 20.9 | 0.00 | 0.00 | 0.00 | 43 | 1011.8 |
| 20260503195029 | 15 | 232 | 6.4 | 30.6 | 0.00 | 0.00 | 0.00 | 44 | 1011.8 |
| 20260503194538 | 15 | 256 | 11.3 | 30.6 | 0.00 | 0.00 | 0.00 | 42 | 1011.7 |
| 20260503194029 | 15 | 286 | 6.4 | 19.3 | 0.00 | 0.00 | 0.00 | 44 | 1011.7 |
| 20260503193530 | 15 | 329 | 4.8 | 19.3 | 0.00 | 0.00 | 0.00 | 42 | 1011.8 |
| 20260503193028 | 15 | 282 | 4.8 | 12.9 | 0.00 | 0.00 | 0.00 | 43 | 1011.9 |
| 20260503192527 | 15 | 304 | 3.2 | 19.3 | 0.00 | 0.00 | 0.00 | 44 | 1011.9 |
| 20260503192027 | 14 | 337 | 8.0 | 17.7 | 0.00 | 0.00 | 0.00 | 41 | 1011.9 |
| 20260503191526 | 14 | 319 | 6.4 | 17.7 | 0.00 | 0.00 | 0.00 | 44 | 1012.0 |
| 20260503191027 | 13 | 267 | 8.0 | 19.3 | 0.00 | 0.00 | 0.00 | 44 | 1011.9 |
| 20260503190528 | 14 | 315 | 8.0 | 17.7 | 0.00 | 0.00 | 0.00 | 44 | 1011.9 |
| 20260503190036 | 14 | 336 | 6.4 | 17.7 | 0.00 | 0.00 | 0.00 | 43 | 1012.1 |
| 20260503185528 | 14 | 317 | 6.4 | 16.1 | 0.00 | 0.00 | 0.00 | 43 | 1012.2 |
| 20260503185027 | 14 | 346 | 6.4 | 24.1 | 0.00 | 0.00 | 0.00 | 43 | 1012.0 |
| 20260503184526 | 14 | 240 | 8.0 | 24.1 | 0.00 | 0.00 | 0.00 | 43 | 1011.9 |
| 20260503184023 | 14 | 273 | 6.4 | 17.7 | 0.00 | 0.00 | 0.00 | 46 | 1012.2 |
| 20260503183525 | 13 | 328 | 4.8 | 16.1 | 0.00 | 0.00 | 0.00 | 46 | 1012.4 |
| 20260503183022 | 13 | 37 | 8.0 | 20.9 | 0.00 | 0.00 | 0.00 | 45 | 1012.3 |
| 20260503182521 | 13 | 282 | 8.0 | 20.9 | 0.00 | 0.00 | 0.00 | 46 | 1012.3 |
| 20260503182020 | 13 | 203 | 6.4 | 22.5 | 0.00 | 0.00 | 0.00 | 46 | 1012.5 |
| 20260503181520 | 13 | 360 | 6.4 | 20.9 | 0.00 | 0.00 | 0.00 | 45 | 1012.4 |
| 20260503181020 | 13 | 250 | 4.8 | 20.9 | 0.00 | 0.00 | 0.00 | 47 | 1012.3 |
| 20260503180521 | 13 | 302 | 6.4 | 20.9 | 0.00 | 0.00 | 0.00 | 46 | 1012.3 |
| 20260503180019 | 12 | 324 | 6.4 | 20.9 | 0.00 | 0.00 | 0.00 | 45 | 1012.4 |